McCook, NE

6:32 PM CST on December 15, 2019 (GMT -0600)
McCook Municipal

Weather History for KMCK - September, 2019

Change the Weather History Date:

Saturday, September 14, 2019

  Actual Average Record
Temperature  
Mean Temperature 74 °F 65 °F  
Max Temperature 90 °F 80 °F 99 °F (1955)
Min Temperature 57 °F 50 °F 36 °F (1989)
Cooling Degree Days 8    
Growing Degree Days 24 (Base 50)    
Moisture  
Dew Point 59 °F    
Average Humidity 64    
Maximum Humidity 97    
Minimum Humidity 34    
Precipitation  
Precipitation 0.00 in 0.04 in 1.52 in (2001)
Month to date precipitation 0.51 0.69  
Year to date precipitation 17.84 18.40  
Sea Level Pressure  
Sea Level Pressure 29.99 in    
Wind  
Wind Speed 6 mph ()    
Max Wind Speed 13 mph    
Max Gust Speed 29 mph    
Visibility 9.8 miles    
Events      
T = Trace of Precipitation, MM = Missing Value Source: Averaged Metar Reports

Daily Weather History Graph

Daily Weather History Graph

Search for Another Location

Airport or City:

Astronomy

Sep. 14, 2019 Rise Set
Actual Time 7:22 AM CDT 7:53 PM CDT
Civil Twilight 6:54 AM CDT 8:20 PM CDT
Nautical Twilight 6:22 AM CDT 8:52 PM CDT
Astronomical Twilight 5:49 AM CDT 9:25 PM CDT
Moon 8:34 PM CDT (9/14) 7:37 AM CDT (9/14)
Length of Visible Light 13h 25m
Length of Day
12h 30m
Full, 100% of the Moon is Illuminated
Sep 14
Full
Sep 21
Last Quarter
Sep 28
New
Oct 5
First Quarter
Oct 13
Full

Hourly Weather History & Observations

Time (CDT) Temp. Heat Index Dew Point Humidity Pressure Visibility Wind Dir Wind Speed Gust Speed Precip Events Conditions
12:53 AM 69.1 °F - 53.1 °F 57% 30.04 in 10.0 mi South 12.7 mph 28.8 mph N/A   Clear
1:53 AM 66.9 °F - 55.9 °F 68% 30.04 in 10.0 mi South 11.5 mph 19.6 mph N/A   Clear
2:53 AM 66.0 °F - 57.9 °F 75% 30.02 in 10.0 mi SSW 12.7 mph - N/A   Clear
3:53 AM 66.0 °F - 59.0 °F 78% 30.01 in 10.0 mi SSW 9.2 mph - N/A   Clear
4:53 AM 64.0 °F - 59.0 °F 84% 30.03 in 10.0 mi West 4.6 mph - N/A   Clear
5:53 AM 61.0 °F - 57.9 °F 90% 30.03 in 10.0 mi North 5.8 mph - N/A   Clear
6:53 AM 57.9 °F - 57.0 °F 97% 30.02 in 10.0 mi SE 3.5 mph - N/A   Clear
7:53 AM 59.0 °F - 57.0 °F 93% 30.03 in 5.0 mi SSE 4.6 mph - N/A   Clear
9:53 AM 70.0 °F - 63.0 °F 78% 30.02 in 10.0 mi SSW 8.1 mph - N/A   Clear
10:53 AM 75.0 °F - 63.0 °F 66% 30.00 in 10.0 mi West 6.9 mph - N/A   Clear
11:53 AM 79.0 °F - 63.0 °F 58% 29.99 in 10.0 mi Variable 3.5 mph - N/A   Clear
12:53 PM 81.0 °F 82.7 °F 64.9 °F 58% 29.98 in 10.0 mi South 5.8 mph - N/A   Clear
1:53 PM 84.0 °F 85.4 °F 64.0 °F 51% 29.97 in 10.0 mi Variable 4.6 mph - N/A   Clear
2:53 PM 86.0 °F 87.3 °F 64.0 °F 48% 29.95 in 10.0 mi Variable 5.8 mph - N/A   Clear
3:53 PM 88.0 °F 88.4 °F 62.1 °F 42% 29.93 in 10.0 mi Variable 4.6 mph - N/A   Clear
4:53 PM 89.1 °F 88.0 °F 57.9 °F 35% 29.92 in 10.0 mi Variable 3.5 mph - N/A   Clear
5:53 PM 88.0 °F 86.5 °F 55.9 °F 34% 29.93 in 10.0 mi South 4.6 mph - N/A   Clear
6:53 PM 87.1 °F 85.7 °F 55.9 °F 35% 29.94 in 10.0 mi SSW 3.5 mph - N/A   Clear
7:53 PM 81.0 °F 81.0 °F 57.0 °F 44% 29.95 in 10.0 mi Calm Calm - N/A   Clear
8:53 PM 75.0 °F - 57.9 °F 55% 29.96 in 10.0 mi South 4.6 mph - N/A   Clear
9:53 PM 69.1 °F - 60.1 °F 73% 29.97 in 10.0 mi SSW 3.5 mph - N/A   Clear
10:53 PM 64.9 °F - 57.0 °F 75% 29.99 in 10.0 mi NW 3.5 mph - N/A   Clear
11:53 PM 64.0 °F - 59.0 °F 84% 29.98 in 10.0 mi Calm Calm - N/A   Clear